Salt Lake City, UT

6:01 PM MDT on April 29, 2017 (GMT -0600)
Salt Lake City International

Weather History for KSLC - September, 2013

Change the Weather History Date:

Tuesday, September 17, 2013

  Actual Average Record
Temperature  
Mean Temperature 80 °F 66 °F  
Max Temperature 92 °F 79 °F 94 °F (2014)
Min Temperature 68 °F 52 °F 31 °F (1965)
Degree Days  
Heating Degree Days 0 3  
Month to date heating degree days 0 25  
Since 1 July heating degree days 0 30  
Cooling Degree Days 15 3  
Month to date cooling degree days 193 92  
Year to date cooling degree days 1739 1128  
Growing Degree Days 30 (Base 50)    
Moisture  
Dew Point 45 °F    
Average Humidity 34    
Maximum Humidity 53    
Minimum Humidity 14    
Precipitation  
Precipitation 0.00 in 0.05 in 1.38 in (1978)
Month to date precipitation 1.01 0.61  
Year to date precipitation 8.45 11.12  
Snow  
Snow 0.00 in 0.00 in 2.20 in (1965)
Month to date snowfall 0.0 0.0  
Since 1 July snowfall 0.0 0.0  
Snow Depth 0.00 in    
Sea Level Pressure  
Sea Level Pressure 29.61 in    
Wind  
Wind Speed 16 mph (SSE)    
Max Wind Speed 33 mph    
Max Gust Speed 44 mph    
Visibility 10 miles    
Events Thunderstorm    
T = Trace of Precipitation, MM = Missing Value Source: NWS Daily Summary

Daily Weather History Graph

Daily Weather History Graph

Search for Another Location

Airport or City:

Trip Planner

Search our weather history database for the weather conditions in past years. The results will help you decide how hot, cold, wet, or windy it might be!

Date:

Astronomy

Sep. 17, 2013 Rise Set
Actual Time 7:10 AM MDT 7:33 PM MDT
Civil Twilight 6:43 AM MDT 8:00 PM MDT
Nautical Twilight 6:11 AM MDT 8:32 PM MDT
Astronomical Twilight 5:37 AM MDT 9:05 PM MDT
Moon 6:22 PM MDT (9/17) 5:09 AM MDT (9/17)
Length of Visible Light 13h 17m
Length of Day
12h 22m
Waxing Gibbous, 96% of the Moon is Illuminated
Sep 17
Waxing Gibbous
Sep 19
Full
Sep 26
Last Quarter
Oct 4
New
Oct 11
First Quarter

Hourly Weather History & Observations

Time (MDT) Temp. Dew Point Humidity Pressure Visibility Wind Dir Wind Speed Gust Speed Precip Events Conditions
12:53 AM 73.9 °F 52.0 °F 46% 29.74 in 10.0 mi SE 12.7 mph - N/A   Scattered Clouds
1:53 AM 72.0 °F 53.1 °F 51% 29.75 in 10.0 mi SE 10.4 mph - N/A   Scattered Clouds
2:53 AM 72.0 °F 53.1 °F 51% 29.74 in 10.0 mi SE 12.7 mph - N/A   Scattered Clouds
3:53 AM 73.0 °F 52.0 °F 48% 29.73 in 10.0 mi SE 13.8 mph - N/A   Partly Cloudy
4:53 AM 71.1 °F 52.0 °F 51% 29.72 in 10.0 mi SE 10.4 mph - N/A   Scattered Clouds
5:53 AM 72.0 °F 52.0 °F 49% 29.70 in 10.0 mi SE 15.0 mph - N/A   Scattered Clouds
6:53 AM 70.0 °F 53.1 °F 55% 29.71 in 10.0 mi SE 11.5 mph - N/A   Scattered Clouds
7:53 AM 71.1 °F 51.1 °F 49% 29.73 in 10.0 mi SSE 8.1 mph - N/A   Scattered Clouds
8:53 AM 78.1 °F 48.9 °F 36% 29.70 in 10.0 mi South 18.4 mph 25.3 mph N/A   Scattered Clouds
9:53 AM 79.0 °F 48.9 °F 35% 29.69 in 10.0 mi South 21.9 mph 28.8 mph N/A   Scattered Clouds
10:53 AM 80.6 °F 48.2 °F 32% 29.67 in 10.0 mi South 20.7 mph 25.3 mph N/A Thunderstorm Thunderstorm
11:24 AM 82.4 °F 51.8 °F 35% 29.84 in 10.0 mi South 21.9 mph 26.5 mph N/A   Scattered Clouds
11:53 AM 82.9 °F 50.0 °F 32% 29.65 in 10.0 mi SSE 20.7 mph 27.6 mph N/A   Scattered Clouds
12:53 PM 86.0 °F 48.9 °F 28% 29.61 in 10.0 mi SSE 13.8 mph 23.0 mph N/A   Scattered Clouds
1:53 PM 88.0 °F 46.9 °F 24% 29.57 in 10.0 mi South 18.4 mph 29.9 mph N/A   Scattered Clouds
2:53 PM 90.0 °F 44.1 °F 20% 29.52 in 10.0 mi South 21.9 mph 32.2 mph N/A   Scattered Clouds
3:53 PM 91.0 °F 37.0 °F 15% 29.49 in 10.0 mi SSW 28.8 mph 39.1 mph N/A   Scattered Clouds
4:53 PM 90.0 °F 35.1 °F 14% 29.47 in 10.0 mi South 29.9 mph 42.6 mph N/A   Scattered Clouds
5:53 PM 89.1 °F 34.0 °F 14% 29.46 in 10.0 mi South 28.8 mph 36.8 mph N/A   Scattered Clouds
6:53 PM 87.1 °F 33.1 °F 15% 29.47 in 10.0 mi South 20.7 mph 31.1 mph N/A   Scattered Clouds
7:53 PM 84.0 °F 33.1 °F 16% 29.47 in 10.0 mi South 19.6 mph 26.5 mph N/A   Scattered Clouds
8:53 PM 82.9 °F 35.1 °F 18% 29.47 in 10.0 mi South 19.6 mph 27.6 mph N/A   Scattered Clouds
9:53 PM 81.0 °F 37.0 °F 21% 29.47 in 10.0 mi SSE 16.1 mph 26.5 mph N/A   Mostly Cloudy
10:53 PM 81.0 °F 37.9 °F 21% 29.48 in 10.0 mi South 23.0 mph 32.2 mph N/A   Mostly Cloudy
11:53 PM 79.0 °F 39.9 °F 25% 29.48 in 10.0 mi SSE 19.6 mph 26.5 mph 0.00 in   Scattered Clouds